• în România
  • Lista ţărilor
  • Pe 7 zile
  • Temperatura apei
  • Hartă satelitară
  • Meteo pe hartă
  • Widget-uri
  • user-avatar
    Intrare

    Meteo pe oră la Zadar

    Astăzi, 15 Decembrie, Vineri

    Timp Temperatura Precipitaţii Vânt Presiune Umiditate
    00:00 +11°C° 0,6 mm 7 m/s 753 mmHg 84%
    01:00 +11°C° 0,6 mm 7 m/s 752 mmHg 83%
    02:00 +12°C° 0,5 mm 7 m/s 752 mmHg 82%
    03:00 +12°C° 0,5 mm 7 m/s 752 mmHg 81%
    04:00 +12°C° 0,5 mm 7 m/s 751 mmHg 81%
    05:00 +12°C° 0,7 mm 7 m/s 751 mmHg 81%
    06:00 +12°C° 0,7 mm 7 m/s 751 mmHg 82%
    07:00 +12°C° 0,7 mm 7 m/s 751 mmHg 83%
    08:00 +12°C° 0,7 mm 7 m/s 751 mmHg 81%
    09:00 +14°C° 0,7 mm 7 m/s 751 mmHg 80%
    10:00 +14°C° 0,7 mm 7 m/s 751 mmHg 78%
    11:00 +14°C° 0,4 mm 6 m/s 750 mmHg 78%
    12:00 +14°C° 0,4 mm 5 m/s 750 mmHg 78%
    13:00 +14°C° 0,4 mm 4 m/s 749 mmHg 78%
    14:00 +14°C° 1,1 mm 5 m/s 749 mmHg 83%
    15:00 +13°C° 1,1 mm 5 m/s 748 mmHg 87%
    16:00 +11°C° 1,1 mm 6 m/s 748 mmHg 91%
    17:00 +12°C° 1,8 mm 5 m/s 748 mmHg 92%
    18:00 +12°C° 1,8 mm 5 m/s 748 mmHg 93%
    19:00 +12°C° 1,8 mm 4 m/s 748 mmHg 95%
    20:00 +12°C° 1 mm 4 m/s 748 mmHg 95%
    21:00 +12°C° 1 mm 4 m/s 748 mmHg 95%
    22:00 +12°C° 1 mm 4 m/s 748 mmHg 96%
    23:00 +10°C° 1,3 mm 5 m/s 748 mmHg 94%

    Mâine, 16 Decembrie, Sâmbătă

    Timp Temperatura Precipitaţii Vânt Presiune Umiditate
    00:00 +10°C° 1,3 mm 6 m/s 748 mmHg 92%
    01:00 +10°C° 1,3 mm 7 m/s 749 mmHg 90%
    02:00 +9°C° 0,4 mm 6 m/s 749 mmHg 88%
    03:00 +8°C° 0,4 mm 6 m/s 749 mmHg 86%
    04:00 +8°C° 0,4 mm 5 m/s 749 mmHg 84%
    05:00 +7°C° 0,2 mm 5 m/s 750 mmHg 85%
    06:00 +7°C° 0,2 mm 4 m/s 750 mmHg 85%
    07:00 +6°C° 0,2 mm 4 m/s 751 mmHg 86%
    08:00 +7°C° 0,3 mm 4 m/s 751 mmHg 83%
    09:00 +7°C° 0,3 mm 4 m/s 752 mmHg 81%
    10:00 +8°C° 0,3 mm 4 m/s 752 mmHg 78%
    11:00 +8°C° 0,2 mm 4 m/s 752 mmHg 77%
    12:00 +8°C° 0,2 mm 4 m/s 752 mmHg 76%
    13:00 +10°C° 0,2 mm 4 m/s 753 mmHg 75%
    14:00 +9°C° 0,1 mm 3 m/s 753 mmHg 77%
    15:00 +9°C° 0,1 mm 3 m/s 753 mmHg 80%
    16:00 +8°C° 0,1 mm 3 m/s 753 mmHg 82%
    17:00 +8°C° 0 mm 3 m/s 754 mmHg 82%
    18:00 +7°C° 0 mm 3 m/s 754 mmHg 82%
    19:00 +7°C° 0 mm 3 m/s 755 mmHg 83%
    20:00 +6°C° 0,2 mm 4 m/s 755 mmHg 81%
    21:00 +6°C° 0,2 mm 5 m/s 756 mmHg 80%
    22:00 +4°C° 0,2 mm 6 m/s 756 mmHg 78%
    23:00 +4°C° 0,1 mm 6 m/s 757 mmHg 76%

    Poimâine, 17 Decembrie, Duminică

    Timp Temperatura Precipitaţii Vânt Presiune Umiditate
    00:00 +4°C° 0,1 mm 7 m/s 757 mmHg 74%
    01:00 +4°C° 0,1 mm 8 m/s 757 mmHg 73%
    02:00 +2°C° 0 mm 8 m/s 758 mmHg 73%
    03:00 +3°C° 0 mm 7 m/s 758 mmHg 73%
    04:00 +3°C° 0 mm 7 m/s 759 mmHg 73%
    05:00 +3°C° 0 mm 7 m/s 759 mmHg 73%
    06:00 +3°C° 0 mm 7 m/s 760 mmHg 73%
    07:00 +2°C° 0 mm 7 m/s 761 mmHg 74%
    08:00 +3°C° 0 mm 6 m/s 761 mmHg 71%
    09:00 +4°C° 0 mm 6 m/s 762 mmHg 67%
    10:00 +4°C° 0 mm 6 m/s 763 mmHg 64%
    11:00 +5°C° 0 mm 6 m/s 763 mmHg 61%
    12:00 +5°C° 0 mm 6 m/s 763 mmHg 57%
    13:00 +7°C° 0 mm 5 m/s 764 mmHg 54%
    14:00 +6°C° 0 mm 5 m/s 764 mmHg 57%
    15:00 +5°C° 0 mm 5 m/s 764 mmHg 60%
    16:00 +3°C° 0 mm 5 m/s 765 mmHg 63%
    17:00 +3°C° 0 mm 5 m/s 765 mmHg 65%
    18:00 +2°C° 0 mm 5 m/s 766 mmHg 67%
    19:00 +2°C° 0 mm 5 m/s 766 mmHg 69%
    20:00 +2°C° 0 mm 5 m/s 767 mmHg 68%
    21:00 +1°C° 0 mm 5 m/s 768 mmHg 67%
    22:00 +1°C° 0 mm 5 m/s 768 mmHg 67%
    23:00 +1°C° 0 mm 5 m/s 768 mmHg 66%

    18 Decembrie, Luni

    Timp Temperatura Precipitaţii Vânt Presiune Umiditate
    00:00 +1°C° 0 mm 4 m/s 769 mmHg 65%
    01:00 +1°C° 0 mm 4 m/s 769 mmHg 64%
    02:00 +1°C° 0 mm 4 m/s 769 mmHg 63%
    03:00 +2°C° 0 mm 3 m/s 769 mmHg 61%
    04:00 +2°C° 0 mm 3 m/s 769 mmHg 60%
    05:00 +2°C° 0 mm 3 m/s 769 mmHg 60%
    06:00 +3°C° 0 mm 2 m/s 769 mmHg 59%
    07:00 +3°C° 0 mm 2 m/s 770 mmHg 59%
    08:00 +4°C° 0 mm 2 m/s 769 mmHg 55%
    09:00 +5°C° 0 mm 2 m/s 769 mmHg 51%
    10:00 +6°C° 0 mm 2 m/s 769 mmHg 47%
    11:00 +5°C° 0 mm 3 m/s 769 mmHg 50%
    12:00 +7°C° 0 mm 3 m/s 768 mmHg 53%
    13:00 +7°C° 0 mm 3 m/s 767 mmHg 56%
    14:00 +7°C° 0 mm 3 m/s 767 mmHg 62%
    15:00 +5°C° 0 mm 3 m/s 767 mmHg 67%
    16:00 +5°C° 0 mm 3 m/s 766 mmHg 72%
    17:00 +6°C° 0 mm 2 m/s 766 mmHg 73%
    18:00 +6°C° 0 mm 2 m/s 767 mmHg 74%
    19:00 +5°C° 0 mm 2 m/s 767 mmHg 74%
    20:00 +5°C° 0 mm 2 m/s 767 mmHg 76%
    21:00 +5°C° 0 mm 2 m/s 767 mmHg 78%
    22:00 +5°C° 0 mm 2 m/s 767 mmHg 81%
    23:00 +5°C° 0 mm 2 m/s 767 mmHg 81%

    19 Decembrie, Marţi

    Timp Temperatura Precipitaţii Vânt Presiune Umiditate
    00:00 +5°C° 0 mm 2 m/s 767 mmHg 81%
    01:00 +4°C° 0 mm 2 m/s 767 mmHg 81%
    02:00 +4°C° 0 mm 2 m/s 768 mmHg 80%
    03:00 +4°C° 0 mm 2 m/s 768 mmHg 79%
    04:00 +4°C° 0 mm 2 m/s 768 mmHg 78%
    05:00 +4°C° 0 mm 2 m/s 768 mmHg 77%
    06:00 +4°C° 0 mm 2 m/s 769 mmHg 75%
    07:00 +3°C° 0 mm 2 m/s 769 mmHg 74%
    08:00 +5°C° 0 mm 2 m/s 770 mmHg 70%
    09:00 +6°C° 0 mm 2 m/s 770 mmHg 65%
    10:00 +7°C° 0 mm 2 m/s 770 mmHg 61%
    11:00 +8°C° 0 mm 2 m/s 770 mmHg 58%
    12:00 +9°C° 0 mm 2 m/s 770 mmHg 55%
    13:00 +9°C° 0 mm 3 m/s 770 mmHg 52%
    14:00 +9°C° 0 mm 3 m/s 770 mmHg 56%
    15:00 +8°C° 0 mm 3 m/s 770 mmHg 60%
    16:00 +7°C° 0 mm 3 m/s 770 mmHg 65%
    17:00 +5°C° 0 mm 4 m/s 770 mmHg 67%
    18:00 +5°C° 0 mm 4 m/s 770 mmHg 69%
    19:00 +4°C° 0 mm 4 m/s 771 mmHg 71%
    20:00 +4°C° 0 mm 4 m/s 771 mmHg 71%
    21:00 +4°C° 0 mm 4 m/s 771 mmHg 71%
    22:00 +4°C° 0 mm 4 m/s 771 mmHg 71%
    23:00 +3°C° 0 mm 5 m/s 771 mmHg 73%

    20 Decembrie, Miercuri

    Timp Temperatura Precipitaţii Vânt Presiune Umiditate
    00:00 +2°C° 0 mm 5 m/s 772 mmHg 74%
    01:00 +2°C° 0 mm 6 m/s 772 mmHg 76%
    02:00 +2°C° 0 mm 6 m/s 772 mmHg 75%
    03:00 0°C° 0 mm 7 m/s 772 mmHg 73%
    04:00 0°C° 0 mm 7 m/s 772 mmHg 71%
    05:00 -1°C° 0 mm 7 m/s 772 mmHg 70%
    06:00 -1°C° 0 mm 7 m/s 773 mmHg 69%
    07:00 -1°C° 0 mm 7 m/s 773 mmHg 68%
    08:00 -1°C° 0 mm 7 m/s 773 mmHg 64%
    09:00 0°C° 0 mm 7 m/s 773 mmHg 59%
    10:00 +1°C° 0 mm 6 m/s 774 mmHg 55%
    11:00 +2°C° 0 mm 7 m/s 773 mmHg 53%
    12:00 +3°C° 0 mm 7 m/s 773 mmHg 50%
    13:00 +3°C° 0 mm 7 m/s 773 mmHg 48%
    14:00 +2°C° 0 mm 6 m/s 773 mmHg 52%
    15:00 +2°C° 0 mm 6 m/s 773 mmHg 55%
    16:00 +1°C° 0 mm 6 m/s 773 mmHg 59%
    17:00 +1°C° 0 mm 6 m/s 773 mmHg 61%
    18:00 0°C° 0 mm 5 m/s 774 mmHg 64%
    19:00 -1°C° 0 mm 5 m/s 774 mmHg 66%
    20:00 -1°C° 0 mm 5 m/s 774 mmHg 66%
    21:00 -1°C° 0 mm 5 m/s 774 mmHg 66%
    22:00 -1°C° 0 mm 5 m/s 774 mmHg 67%
    23:00 -1°C° 0 mm 5 m/s 774 mmHg 67%
    Arată mai mult